Starlink 11441

operational
NORAD ID: 62413 Int'l Des: 2024-249 Owner: SPXS Country: US Constellation: starlink
LEOCIRCULAR

Über Starlink 11441

Beschreibung wird geladen...

Live-Position

3D-Globus wird geladen...

Nächste Überflüge

Höhenverlauf

Altitude vs Time

uPlot chart will show altitude changes over time

Zweizeiliger Elementsatz

1 62413U 24249E 26033.33643117 .00262593 00000-0 19799-2 0 9993
2 62413 42.9988 20.4696 0001111 268.9389 91.1351 15.70912737 63926
Epoch: 2. Feb. 2026 • Age: 18 hours

Aktueller Status

Höhe 363.1 km
Geschwindigkeit 7.69 km/s
Subsatellitenpunkt -31.32°S, 169.57°E
Startdatum 23. Dez. 2024
Alter 1.1 years
Typ internet

Technische Details

Klassifizierung Payload
Masse 960.00 kg
Trockenmasse 910.00 kg
Gesamtmasse 960.00 kg
Länge 0.30 m
Durchmesser 4.10 m
Spannweite 29.00 m
Form Box + pan
Hersteller SPXS
Bus-Typ Starlink V2MD
Phasenstatus In Orbit
Besitzer/Staat SPXS/US

Große Konstellationen

Loading constellations...